Total_Precipitation_Accumulation
0.67 0.72 0.78 0.87 0.93 0.97 1.01 1.06 1.11 1.12 1.12 1.13 1.18 1.26 1.33 1.35 1.35 1.40 1.47 1.49 1.49 1.44 1.40 1.38 1.34 1.28 1.28 1.27 1.31 1.36 1.42 1.50 1.49 1.17 0.98 0.96 1.03 1.04 1.07 1.00 0.94 0.91 0.90
0.61 0.66 0.72 0.74 0.79 0.87 0.92 0.90 0.91 0.95 0.98 0.95 0.93 1.01 1.07 1.11 1.15 1.18 1.22 1.26 1.31 1.30 1.32 1.35 1.34 1.35 1.40 1.41 1.42 1.41 1.40 1.37 1.38 1.25 1.02 0.93 0.90 0.86 0.86 0.89 0.89 0.87 0.81
0.58 0.61 0.66 0.69 0.69 0.74 0.82 0.84 0.84 0.87 0.93 0.95 0.89 0.88 0.92 0.95 1.01 1.03 1.03 1.07 1.13 1.16 1.20 1.26 1.30 1.34 1.43 1.45 1.43 1.41 1.35 1.30 1.29 1.27 1.11 0.96 0.92 0.86 0.85 0.83 0.83 0.82 0.77
0.53 0.57 0.59 0.65 0.67 0.67 0.70 0.75 0.79 0.80 0.85 0.86 0.88 0.87 0.87 0.88 0.94 1.00 1.03 1.05 1.11 1.15 1.18 1.20 1.22 1.22 1.22 1.23 1.23 1.22 1.22 1.24 1.25 1.25 1.18 1.05 0.96 0.91 0.93 0.96 0.92 0.82 0.77
0.48 0.53 0.55 0.60 0.64 0.67 0.68 0.71 0.76 0.77 0.81 0.82 0.84 0.86 0.85 0.86 0.92 1.00 1.06 1.08 1.12 1.18 1.23 1.21 1.14 1.13 1.07 1.04 1.03 1.02 1.04 1.14 1.24 1.28 1.21 1.09 0.97 0.93 0.92 0.87 0.91 0.89 0.83
0.44 0.48 0.51 0.55 0.58 0.63 0.67 0.69 0.71 0.76 0.82 0.86 0.92 0.95 0.96 1.00 1.17 1.20 1.16 1.14 1.13 1.10 1.10 1.05 1.02 1.02 0.99 1.01 1.02 1.01 1.06 1.19 1.30 1.29 1.16 0.99 0.82 0.77 0.83 0.92 1.02 1.08 0.99
0.43 0.45 0.48 0.53 0.57 0.60 0.66 0.72 0.79 0.84 0.93 1.00 1.04 1.12 1.13 1.16 1.22 1.13 1.10 1.04 1.07 1.04 0.97 0.89 0.85 0.81 0.83 0.77 0.86 0.94 0.96 1.04 1.09 1.06 0.99 0.83 0.76 0.75 0.95 1.14 1.12 1.07 0.89
0.42 0.49 0.52 0.55 0.64 0.70 0.72 0.79 0.88 0.95 1.03 1.10 1.10 1.12 1.13 1.14 1.14 1.05 1.01 0.89 0.86 0.86 0.82 0.77 0.71 0.70 0.70 0.74 0.81 0.88 0.80 0.76 0.77 0.73 0.74 0.77 0.79 0.80 0.95 1.17 1.16 1.11 0.94
0.41 0.48 0.54 0.57 0.69 0.77 0.77 0.81 0.89 0.95 1.01 1.04 1.04 1.01 0.94 0.93 0.95 0.86 0.83 0.75 0.75 0.73 0.71 0.72 0.73 0.67 0.75 0.88 0.88 0.87 0.74 0.63 0.67 0.75 0.80 0.81 0.85 0.86 0.91 1.20 1.34 1.37 1.19
0.51 0.55 0.62 0.70 0.81 0.85 0.84 0.84 0.83 0.84 0.85 0.83 0.80 0.77 0.73 0.69 0.73 0.71 0.68 0.60 0.62 0.62 0.64 0.67 0.76 0.73 0.81 0.91 0.82 0.79 0.73 0.62 0.60 0.60 0.61 0.61 0.60 0.66 0.79 0.98 1.39 1.68 1.40
0.67 0.67 0.71 0.77 0.81 0.83 0.81 0.77 0.74 0.70 0.70 0.68 0.66 0.63 0.61 0.60 0.62 0.62 0.62 0.56 0.55 0.60 0.62 0.60 0.62 0.81 0.88 0.87 0.78 0.66 0.70 0.75 0.65 0.56 0.55 0.54 0.53 0.55 0.59 0.67 0.97 1.58 1.79
0.70 0.69 0.69 0.69 0.70 0.74 0.75 0.73 0.69 0.67 0.66 0.66 0.66 0.67 0.65 0.63 0.62 0.61 0.65 0.67 0.68 0.62 0.57 0.52 0.59 0.79 0.78 0.73 0.66 0.69 0.82 0.78 0.64 0.63 0.61 0.59 0.56 0.53 0.52 0.57 0.67 0.88 1.20
0.63 0.65 0.62 0.58 0.58 0.60 0.63 0.66 0.66 0.65 0.64 0.66 0.66 0.68 0.68 0.65 0.67 0.71 0.70 0.76 0.78 0.67 0.63 0.70 0.74 0.70 0.63 0.60 0.63 0.68 0.68 0.64 0.70 0.78 0.73 0.62 0.56 0.55 0.57 0.62 0.65 0.72 0.82
0.51 0.56 0.57 0.53 0.52 0.52 0.52 0.58 0.61 0.62 0.62 0.61 0.63 0.66 0.65 0.61 0.62 0.67 0.69 0.73 0.76 0.73 0.74 0.78 0.72 0.63 0.58 0.57 0.61 0.61 0.58 0.60 0.73 0.82 0.76 0.64 0.59 0.63 0.69 0.76 0.87 0.90 0.99
0.44 0.47 0.49 0.51 0.52 0.53 0.55 0.58 0.62 0.63 0.69 0.69 0.63 0.60 0.63 0.63 0.64 0.77 0.78 0.74 0.79 0.83 0.82 0.67 0.59 0.56 0.56 0.53 0.52 0.52 0.56 0.63 0.71 0.72 0.77 0.76 0.70 0.69 0.71 0.81 1.03 1.15 1.21
0.47 0.47 0.48 0.51 0.53 0.54 0.54 0.59 0.65 0.67 0.72 0.72 0.71 0.67 0.62 0.67 0.74 0.79 0.83 0.88 0.92 0.90 0.79 0.66 0.61 0.56 0.53 0.50 0.49 0.52 0.54 0.60 0.68 0.79 0.83 0.83 0.84 0.83 0.82 0.84 1.04 1.24 1.25
0.50 0.50 0.49 0.50 0.54 0.55 0.54 0.54 0.58 0.61 0.65 0.67 0.69 0.70 0.67 0.68 0.68 0.70 0.79 0.86 0.83 0.79 0.70 0.66 0.62 0.59 0.56 0.53 0.54 0.57 0.57 0.57 0.69 0.84 0.92 0.93 0.94 0.91 0.93 0.99 1.07 1.16 1.14
0.49 0.52 0.53 0.52 0.54 0.55 0.54 0.53 0.53 0.55 0.55 0.54 0.58 0.66 0.67 0.68 0.69 0.71 0.77 0.77 0.71 0.66 0.61 0.63 0.61 0.60 0.61 0.63 0.65 0.68 0.68 0.68 0.74 0.84 0.90 0.94 1.02 1.08 1.07 1.06 1.10 1.15 1.11
0.46 0.48 0.49 0.51 0.54 0.58 0.57 0.55 0.55 0.55 0.54 0.52 0.53 0.60 0.67 0.68 0.71 0.73 0.71 0.63 0.58 0.57 0.57 0.57 0.57 0.59 0.65 0.70 0.73 0.76 0.80 0.85 0.89 1.00 1.01 1.02 1.09 1.20 1.15 1.05 1.04 1.00 0.95
0.43 0.50 0.51 0.51 0.51 0.54 0.57 0.57 0.56 0.57 0.57 0.55 0.53 0.56 0.63 0.70 0.67 0.61 0.58 0.58 0.60 0.60 0.58 0.58 0.58 0.59 0.66 0.72 0.75 0.80 0.86 0.88 0.93 1.03 1.07 1.10 1.15 1.24 1.21 1.05 0.96 0.94 0.87
0.42 0.45 0.51 0.50 0.51 0.53 0.54 0.55 0.55 0.58 0.59 0.57 0.55 0.60 0.73 0.71 0.61 0.52 0.53 0.58 0.63 0.64 0.63 0.63 0.62 0.66 0.71 0.76 0.80 0.81 0.87 0.89 0.95 1.07 1.12 1.11 1.12 1.10 1.00 0.97 0.93 0.93 0.94
0.43 0.43 0.43 0.44 0.48 0.54 0.57 0.56 0.57 0.58 0.57 0.57 0.57 0.61 0.72 0.65 0.59 0.56 0.54 0.54 0.56 0.59 0.61 0.67 0.69 0.69 0.81 0.96 1.07 1.09 0.99 0.92 0.94 1.06 1.09 1.01 0.97 0.96 0.95 0.97 0.95 0.96 0.98
0.43 0.44 0.45 0.46 0.50 0.57 0.60 0.56 0.58 0.58 0.57 0.56 0.57 0.59 0.61 0.60 0.60 0.60 0.58 0.56 0.55 0.57 0.59 0.65 0.72 0.70 0.73 0.90 1.10 1.38 1.45 1.24 1.13 1.22 1.32 1.18 1.04 1.01 1.04 1.05 0.98 0.98 0.94
0.42 0.44 0.46 0.48 0.51 0.55 0.56 0.56 0.57 0.59 0.59 0.58 0.57 0.58 0.59 0.60 0.60 0.60 0.59 0.59 0.60 0.59 0.59 0.66 0.72 0.72 0.73 0.89 1.04 1.17 1.31 1.43 1.60 1.66 1.63 1.61 1.36 1.13 1.08 1.06 0.96 0.92 0.93
0.42 0.45 0.47 0.49 0.51 0.54 0.55 0.56 0.56 0.56 0.58 0.58 0.57 0.57 0.57 0.58 0.58 0.57 0.57 0.58 0.60 0.59 0.57 0.60 0.69 0.74 0.78 0.87 1.00 1.08 1.19 1.34 1.52 1.62 1.55 1.47 1.29 1.11 1.09 1.06 0.97 0.93 0.92
0.42 0.45 0.47 0.48 0.50 0.53 0.56 0.56 0.56 0.57 0.60 0.59 0.59 0.59 0.59 0.58 0.56 0.55 0.54 0.56 0.58 0.56 0.54 0.55 0.59 0.69 0.79 0.89 0.91 1.01 1.12 1.10 1.05 1.06 1.25 1.37 1.26 1.08 1.05 1.10 1.00 0.97 0.93